Regional Weather Roundup
Issued by NWS Newport/Morehead, NC

Current Version | Previous Version | Text Only | Print | Product List | Glossary On
Versions: 1 2 3 4 5 6 7 8 9 10 11 12 13 14 15 16 17 18 19 20 21 22 23 24 25 26 27 28 29 30 31 32 33 34 35 36 37 38 39 40 41 42 43 44 45 46 47 48 49 50
000 ASUS42 KMHX 201825 RWRMHX WEATHER ROUNDUP FOR EASTERN NORTH CAROLINA NATIONAL WEATHER SERVICE NEWPORT/MOREHEAD CITY NC 200 PM EDT FRI OCT 20 2017 NOTE: "FAIR" INDICATES FEW OR NO CLOUDS BELOW 12,000 FEET WITH NO SIGNIFICANT WEATHER AND/OR OBSTRUCTIONS TO VISIBILITY NCZ015>017-031-032-045>047-102-103-201900- NORTH COAST CITY SKY/WX TMP DP RH WIND PRES REMARKS EDENTON SUNNY 77 56 47 CALM 30.20F ELIZABETH CITY SUNNY 77 51 40 NE5 30.20F KITTY HAWK CLEAR 73 48 42 CALM 30.18F MANTEO SUNNY N/A N/A N/A N6 30.20F $$ NCZ045>047-081-094-103-104-201900- CENTRAL COAST CITY SKY/WX TMP DP RH WIND PRES REMARKS FRISCO SUNNY 74 59 59 NW6 30.20F $$ NCZ095-097-098-100-101-201900- SOUTHERN COAST CITY SKY/WX TMP DP RH WIND PRES REMARKS BEAUFORT SUNNY 77 50 38 NW5 30.19F CEDAR ISLAND NOT AVBL JACKSONVILLE SUNNY 77 51 40 NW5 30.20F PINEY ISLAND N/A N/A N/A N/A VRB3 30.20F WILMINGTON SUNNY 78 49 35 W3 30.20F $$ NCZ011>013-027>030-043-044-078>080-089-090>093-098-201900- COASTAL PLAIN CITY SKY/WX TMP DP RH WIND PRES REMARKS AHOSKIE SUNNY 74 51 43 CALM 30.21F CLINTON SUNNY 79 48 33 W3 30.20F ELIZABETHTOWN NOT AVBL GOLDSBORO SUNNY 79 47 31 NW5 30.19F GREENVILLE SUNNY 77 52 41 W3 30.21F HAVELOCK SUNNY 78 49 35 NW5 30.21F KENANSVILLE SUNNY 79 46 31 NW6 30.20F KINSTON SUNNY 79 46 31 NW6 30.20F NEW BERN SUNNY 78 49 35 N5 30.21F RICHLANDS SUNNY 80 51 36 VRB6 30.20F ROCKY MOUNT SUNNY 78 51 38 NE6 30.21F WASHINGTON SUNNY 78 52 40 W5 30.20F WHITEVILLE SUNNY 77 47 35 CALM 30.20F $$ AMZ130-135-150-152-154-156-158-170-250-252-270-ANZ085-086-088-633-658-670-201900- MARINE OBSERVATIONS STATION/POSITION TIME TEMP WIND PRES WAVE SWELL AIR SEA DIR/SP/G HT/PER HT/PER (UTC) (F) (DEG/KT/KT) (MB) (FT/S) (FT/S) CHESAPEAKE LIGHT NOT AVBL 64 E VA BEACH 1750 68 68 350/ 8/ 10 1022.7 3/ 9 2/ 9 DUCK 1800 69 70 10/ 5/ 6 1022.2 2 E DUCK 1800 70 N/A 2/ 8 OREGON INLET 1800 360/ 7/ 9 1022.2 13E OREGON INLT 1748 72 N/A 2/ 8 2/ 8 HATTERAS CG 1800 71 70 290/ 5/ 5 1022.4 DIAMOND BUOY 1750 72 81 340/ 6/ 10 1022.4 3/ 9 3/ 9 CAPE LOOKOUT 1800 74 310/ 3/ 5 1022.2 BEAUFORT LAB 1800 74 71 210/ 5/ 6 1022.6 30 SE NEW RVR IN 1808 72 340/ 4/ 8 1022.7 30 SE NEW RVR IN NOT AVBL 27 SE WRIGHTSVLE 1808 72 76 350/ 4/ 8 1023.0 5 SE WRIGHTSVLE 1808 73 75 140/ 6/ 8 1022.6 225 S CAPE HAT 1750 77 80 30/ 14/ 14 1021.0 5/ 8 3/ 8 41 SE CHARLESTON 1810 74 79 30/ 10/ 12 1022.6 $$

USA.gov is the U.S. government's official web portal to all federal, state and local government web resources and services.